EW9240 Weather Reports


Display with metric or nautical units.
time (UTC)temp
F
wind
direction
speed
MPH
gust
MPH
rain 1hr
in
rain 24hr
in
rain mn
in
humidity
%
barometer
mb
20260505113003 55 225 0.0 0.0 0.00 0.00 0.00 84 1012.9
20260505111548 55 195 0.0 0.0 0.00 0.00 0.00 84 1012.9
20260505101557 55 210 0.0 2.0 0.00 0.00 0.00 83 1012.5
20260505100047 55 179 0.0 1.0 0.00 0.00 0.00 84 1012.5
20260505094501 55 210 1.0 3.0 0.00 0.00 0.00 83 1012.3
20260505093024 55 195 0.0 2.0 0.00 0.00 0.00 83 1012.3
20260505091507 55 193 0.0 1.0 0.00 0.00 0.00 82 1012.2
20260505090050 56 219 0.0 2.0 0.00 0.00 0.00 82 1012.1
20260505084528 56 219 0.0 2.0 0.00 0.00 0.00 81 1011.9
20260505083015 56 184 0.0 1.0 0.00 0.00 0.00 81 1011.9
20260505081604 57 215 0.0 3.0 0.00 0.00 0.00 80 1011.7
20260505080046 57 214 0.0 2.0 0.00 0.00 0.00 80 1011.7
20260505074545 57 213 0.0 3.0 0.00 0.00 0.00 80 1011.7
20260505073034 57 193 0.0 4.0 0.00 0.00 0.00 79 1011.4
20260505071508 58 208 1.0 5.0 0.00 0.00 0.00 78 1011.1
20260505070058 59 232 2.0 5.0 0.00 0.00 0.00 78 1011.0
20260505064519 60 182 1.0 6.0 0.00 0.00 0.00 76 1010.7
20260505063117 60 224 0.0 3.0 0.00 0.00 0.00 77 1010.6
20260505061551 61 199 0.0 7.0 0.00 0.00 0.00 75 1010.4
20260505060037 62 208 1.0 4.0 0.00 0.00 0.00 74 1010.3
20260505054511 64 214 0.0 2.0 0.00 0.00 0.00 73 1010.1
20260505053101 65 200 0.0 2.0 0.00 0.00 0.00 72 1010.1
20260505051542 65 282 0.0 3.0 0.00 0.00 0.00 71 1010.0
20260505041521 67 226 0.0 1.0 0.00 0.00 0.00 74 1009.1
20260505034545 67 158 0.0 0.0 0.00 0.00 0.00 73 1008.6
20260505033024 68 143 0.0 3.0 0.00 0.00 0.00 72 1008.4
20260505031508 69 213 0.0 2.0 0.00 0.00 0.00 72 1008.3
20260505030033 69 156 0.0 3.0 0.00 0.00 0.00 71 1008.2
20260505024508 70 232 0.0 4.0 0.00 0.00 0.00 69 1008.0
20260505023053 70 167 2.0 0.0 0.00 0.00 0.00 69 1008.0
20260505021541 70 214 0.0 5.0 0.00 0.00 0.00 68 1007.9
20260505020019 71 211 2.0 6.0 0.00 0.00 0.00 67 1008.0
20260505014555 71 218 3.0 7.0 0.00 0.00 0.00 67 1008.0
20260505013036 71 222 0.0 6.0 0.00 0.00 0.00 67 1008.1
20260505011511 71 213 2.0 4.0 0.00 0.00 0.00 66 1008.3
20260505010118 71 195 2.0 5.0 0.00 0.00 0.00 65 1008.2
20260505004537 71 197 1.0 7.0 0.00 0.00 0.00 65 1008.3
20260505003022 71 220 0.0 8.0 0.00 0.00 0.00 65 1008.4
20260505001534 72 219 2.0 4.0 0.00 0.00 0.00 64 1008.4
20260505000021 71 117 1.0 5.0 0.00 0.00 0.00 64 1008.6
20260504234604 72 151 0.0 4.0 0.00 0.00 0.00 64 1008.6
20260504233036 71 172 0.0 4.0 0.00 0.00 0.00 64 1008.6
20260504231522 71 220 0.0 4.0 0.00 0.00 0.00 64 1008.8
20260504230004 71 217 1.0 6.0 0.00 0.00 0.00 65 1008.8
20260504224505 70 210 1.0 5.0 0.00 0.00 0.00 65 1009.1
20260504223024 70 209 1.0 5.0 0.00 0.00 0.00 66 1009.2
20260504221613 69 217 0.0 6.0 0.00 0.00 0.00 66 1009.4
20260504220046 69 135 1.0 4.0 0.00 0.00 0.00 66 1009.6
20260504214526 68 214 1.0 7.0 0.00 0.00 0.00 67 1009.8
20260504213003 67 225 1.0 5.0 0.00 0.00 0.00 68 1010.0
20260504211552 66 219 1.0 6.0 0.00 0.00 0.00 69 1010.1
20260504210030 66 214 0.0 5.0 0.00 0.00 0.00 69 1010.3
20260504204604 65 224 1.0 6.0 0.00 0.00 0.00 71 1010.6
20260504203044 65 226 2.0 6.0 0.00 0.00 0.00 72 1010.8
20260504201513 65 136 1.0 5.0 0.00 0.00 0.00 72 1010.8
20260504200105 63 226 1.0 4.0 0.00 0.00 0.00 73 1011.0
20260504194542 63 179 0.0 6.0 0.00 0.00 0.00 73 1011.1
20260504193024 63 233 1.0 7.0 0.00 0.00 0.00 72 1011.1
20260504191603 63 225 1.0 8.0 0.00 0.00 0.00 74 1011.3
20260504190038 62 257 0.0 6.0 0.00 0.00 0.00 75 1011.4
20260504184521 61 217 0.0 3.0 0.00 0.00 0.00 74 1011.5
20260504183106 61 310 0.0 3.0 0.00 0.00 0.00 75 1011.5
20260504181552 61 195 1.0 4.0 0.00 0.00 0.00 76 1011.5
20260504180045 60 221 0.0 4.0 0.00 0.00 0.00 76 1011.5
20260504174518 60 210 0.0 3.0 0.00 0.00 0.00 77 1011.5
20260504173006 60 222 1.0 3.0 0.00 0.00 0.00 76 1011.5
20260504171558 59 149 2.0 5.0 0.00 0.00 0.00 78 1011.5
20260504150109 56 218 3.0 8.0 0.00 0.00 0.00 81 1011.0